Location: Peebles
(55.6412°N, 3.1714°W)
Time: 17:32:18
(UTC+01:00)

USA 281 - Pass Details

Date: 30 January 2022
Orbit: 1070 x 1089 km, 106.0° (Epoch: 25 March)

Event Time Altitude Azimuth Distance (km) Brightness Sun altitude
Rises 06:57:57 0° 53° (NE) 3,897 6.7 -10.1°
Reaches altitude 10° 07:01:27 10° 35° (NE) 2,943 5.7 -9.6°
Maximum altitude 07:05:21 17° 358° (N) 2,471 4.9 -9.1°
Drops below altitude 10° 07:09:15 10° 321° (NW) 2,947 5.0 -8.6°
Enters shadow 07:10:26 - 314° (NW) 3,236 5.2 -8.4°
